Buena Park, CA

9:03 PM PST on February 06, 2016 (GMT -0800)
Fullerton Municipal

Weather History for KFUL - November, 2012

Change the Weather History Date:

Sunday, November 11, 2012

  Actual Average Record
Temperature  
Mean Temperature 57 °F 62 °F  
Max Temperature 71 °F 74 °F 82 °F (2002)
Min Temperature 42 °F 51 °F 42 °F (2012)
Degree Days  
Heating Degree Days 8 4  
Month to date heating degree days 22 30  
Since 1 July heating degree days 38 54  
Cooling Degree Days 0 1  
Month to date cooling degree days 36 13  
Year to date cooling degree days 2025 1244  
Growing Degree Days 6 (Base 50)    
Moisture  
Dew Point 28 °F    
Average Humidity 43    
Maximum Humidity 70    
Minimum Humidity 15    
Precipitation  
Precipitation 0.00 in 0.04 in 0.01 in (2001)
Month to date precipitation 0.14 0.47  
Year to date precipitation 3.83 11.20  
Since 1 July precipitation 0.30  
Snow  
Snow 0.00 in - - ()
Month to date snowfall 0.0  
Year to date snowfall 0.0  
Snow Depth 0.00 in    
Sea Level Pressure  
Sea Level Pressure 30.23 in    
Wind  
Wind Speed 2 mph (SE)    
Max Wind Speed 10 mph    
Max Gust Speed 15 mph    
Visibility 10 miles    
Events      
T = Trace of Precipitation, MM = Missing Value Source: NWS Daily Summary

Daily Weather History Graph

Daily Weather History Graph

Search for Another Location

Airport or City:

Trip Planner

Search our weather history database for the weather conditions in past years. The results will help you decide how hot, cold, wet, or windy it might be!

Date:

Astronomy

Nov. 11, 2012 Rise Set
Actual Time 6:20 AM PST 4:50 PM PST
Civil Twilight 5:54 AM PST 5:17 PM PST
Nautical Twilight 5:24 AM PST 5:47 PM PST
Astronomical Twilight 4:55 AM PST 6:16 PM PST
Moon 3:46 AM PST (11/11) 3:13 PM PST (11/11)
Length of Visible Light 11h 22m
Length of Day
10h 29m
Waning Crescent, 6% of the Moon is Illuminated
Nov 11
Waning Crescent
Nov 13
New
Nov 20
First Quarter
Nov 28
Full
Dec 6
Last Quarter

Hourly Weather History & Observations

Time (PST) Temp. Windchill Dew Point Humidity Pressure Visibility Wind Dir Wind Speed Gust Speed Precip Events Conditions
12:53 AM 52.0 °F - 30.0 °F 43% 30.15 in 10.0 mi Calm Calm - N/A   Clear
1:53 AM 48.9 °F - 30.0 °F 48% 30.16 in 10.0 mi Calm Calm - N/A   Clear
2:53 AM 46.9 °F - 30.9 °F 54% 30.17 in 10.0 mi Calm Calm - N/A   Clear
3:53 AM 45.0 °F - 30.9 °F 58% 30.18 in 10.0 mi Calm Calm - N/A   Clear
4:53 AM 45.0 °F 43.5 °F 33.1 °F 63% 30.20 in 10.0 mi NNE 3.5 mph - N/A   Clear
5:53 AM 42.1 °F - 33.1 °F 70% 30.22 in 10.0 mi Calm Calm - N/A   Clear
6:53 AM 44.1 °F - 34.0 °F 68% 30.24 in 10.0 mi Calm Calm - N/A   Clear
7:53 AM 50.0 °F - 32.0 °F 50% 30.26 in 10.0 mi Calm Calm - N/A   Clear
8:53 AM 60.1 °F - 28.9 °F 31% 30.27 in 10.0 mi ENE 4.6 mph - N/A   Clear
10:53 AM 66.0 °F - 21.0 °F 18% 30.26 in 10.0 mi ESE 4.6 mph - N/A   Clear
11:53 AM 68.0 °F - 21.9 °F 17% 30.24 in 10.0 mi SSW 5.8 mph - N/A   Clear
12:53 PM 70.0 °F - 19.0 °F 14% 30.22 in 10.0 mi Calm Calm - N/A   Clear
1:53 PM 69.1 °F - 26.1 °F 20% 30.21 in 10.0 mi SSW 4.6 mph - N/A   Clear
2:53 PM 70.0 °F - 26.1 °F 19% 30.19 in 10.0 mi Variable 3.5 mph - N/A   Clear
3:53 PM 68.0 °F - 28.9 °F 23% 30.21 in 10.0 mi SW 6.9 mph - N/A   Clear
4:53 PM 64.0 °F - 28.9 °F 27% 30.22 in 10.0 mi SW 4.6 mph - N/A   Clear
5:53 PM 60.1 °F - 30.0 °F 32% 30.25 in 10.0 mi West 3.5 mph - N/A   Clear
6:53 PM 57.9 °F - 35.1 °F 42% 30.26 in 10.0 mi Calm Calm - N/A   Clear
7:53 PM 55.0 °F - 34.0 °F 45% 30.28 in 10.0 mi Calm Calm - N/A   Clear
8:53 PM 54.0 °F - 35.1 °F 49% 30.29 in 10.0 mi East 4.6 mph - N/A   Clear
10:53 PM 57.9 °F - 18.0 °F 21% 30.25 in 10.0 mi ENE 8.1 mph - N/A   Clear
11:53 PM 57.0 °F - 16.0 °F 20% 30.25 in 10.0 mi ENE 8.1 mph - N/A   Clear